sat.trackr.live / text

‹ back to catalog

STARLINK-35036

NORAD 65406 · 2025-192C

PAYLOAD ACTIVE UNKNOWN

§ Identity

Operator
Country
US
Launch date
2025-08-31
Launch site
AFETR
Launch vehicle
Mass (kg)
RCS (m²)

Purposes: comms

External: N2YO · Heavens-Above · Gunter

§ Orbital elements

Epoch: 2026-05-24T23:31:52.290912Z

Period
94.10 min
Inclination
53.1560°
Eccentricity
0.0001327
Mean motion
15.30207666 rev/d
Perigee alt
474.3 km
Apogee alt
476.1 km
Semi-major
6,853.3 km
B*
4.0615e-4
RAAN
238.0635°
Arg perigee
79.5595°
Mean anomaly
280.5555°
Rev number
4,106

§ Raw data

STARLINK-350361 65406U 25192C   26144.98046633  .00011692  00000+0  40615-3 0  99932 65406  53.1560 238.0635 0001327  79.5595 280.5555 15.30207666 41060

JSON: /api/v1/satellites/65406 · /tle

For live sub-satellite position, see the globe view (requires WebGL).

§ Visibility from observer

Set your observer location to see the next 7 days of passes ≥ 10°. The values pass through the URL so the page stays shareable.

No JS? Fill the form by hand. The geolocation button needs JavaScript.